Regional Weather Roundup
Issued by NWS

Home | Current Version | Previous Version | Text Only | Print | Product List | Glossary Off
Versions: 1 2 3 4 5 6 7 8 9 10 11 12 13 14 15 16 17 18 19 20 21 22 23 24 25 26 27 28 29 30 31 32 33 34 35 36 37 38 39 40 41 42 43 44 45 46 47 48 49 50

000
ASUS45 KPSR 231710
RWRAZ

ARIZONA REGIONAL HOURLY WEATHER ROUNDUP
NATIONAL WEATHER SERVICE PHOENIX AZ
1000 AM MST TUE SEP 23 2014

NOTE: FAIR INDICATES FEW OR NO CLOUDS BELOW 12,000 FEET WITH NO
SIGNIFICANT WEATHER AND/OR OBSTRUCTIONS TO VISIBILITY.

AZZ001>003-036-231800-
NORTHWEST ARIZONA

CITY           SKY/WX    TMP DP  RH WIND       PRES   REMARKS
BULLHEAD CITY  SUNNY     82  41  23 SW3       29.98S
KINGMAN        SUNNY     83  35  18 CALM      30.14S
$$

AZZ004>008-015-016-018-231800-
NORTH CENTRAL ARIZONA

CITY           SKY/WX    TMP DP  RH WIND       PRES   REMARKS
GRAND CANYON   SUNNY     71  36  27 VRB5      30.35R
PRESCOTT       SUNNY     76  37  24 NE3       30.25S
FLAGSTAFF      SUNNY     68  44  42 SW6       30.37S
PAYSON         SUNNY     75  59  57 CALM      30.27S
PAGE           SUNNY     77  43  29 CALM      30.20R
$$

AZZ009>014-017-231800-
NORTHEAST ARIZONA

CITY           SKY/WX    TMP DP  RH WIND       PRES   REMARKS
WINSLOW        SUNNY     78  48  34 NE5       30.25S
SAINT JOHNS    SUNNY     74  59  59 MISG      30.29S
WINDOW ROCK    SUNNY     71  50  47 S3        30.35
SHOW LOW       MOSUNNY   72  55  56 W6        30.35F
$$

AZZ023-231800-
GREATER PHOENIX AREA

CITY           SKY/WX    TMP DP  RH WIND       PRES   REMARKS
PHOENIX        MOSUNNY   89  54  30 NE5       29.97R
BUCKEYE          N/A     86  55  35 E3        29.98S
GLENDALE       MOSUNNY   90  52  27 NE3       29.99R
LUKE AFB       SUNNY     89  51  27 N6        29.97S
DEER VALLEY    SUNNY     90  49  24 CALM      29.98S
SCOTTSDALE     SUNNY     89  52  28 CALM      30.00S
MESA-GATEWAY   SUNNY     90  55  31 CALM      30.00S
CHANDLER       SUNNY     88  57  35 CALM      29.98S
$$

AZZ027-028-231800-
SOUTHWEST MARICOPA COUNTY AND PINAL COUNTY

CITY           SKY/WX    TMP DP  RH WIND       PRES   REMARKS
CASA GRANDE    SUNNY     90  55  31 CALM      29.99S
GILA BEND      SUNNY     91  52  25 VRB3      29.97S
$$

AZZ503-504-507>509-231800-
SOUTHEAST ARIZONA

CITY           SKY/WX    TMP DP  RH WIND       PRES   REMARKS
TUCSON         SUNNY     88  64  44 E3        30.07S
DAVIS-MONTHAN  SUNNY     86  64  47 NE3       30.05S
NOGALES        SUNNY     81  65  58 S3        30.14S
SIERRA VISTA   MOSUNNY   75  63  64 NE5       30.21S
DOUGLAS        SUNNY     77  62  59 NE7       30.18S
SAFFORD        SUNNY     80  64  58 SE8       30.12F
$$

AZZ020-021-025-026-031-231800-
SOUTHWEST ARIZONA

CITY           SKY/WX    TMP DP  RH WIND       PRES   REMARKS
YUMA           SUNNY     95  59  30 VRB5      29.91S
$$

CAZ031-033-041-043-047-048-061-231800-
SOUTHERN CALIFORNIA

CITY           SKY/WX    TMP DP  RH WIND       PRES   REMARKS
DOWNTOWN L.A.  SUNNY     74  63  68 CALM      29.98S
L.A. AIRPORT   MOSUNNY   68  63  83 W3        29.99S
SAN DIEGO      MOSUNNY   71  63  75 NW7       29.99R
BURBANK        SUNNY     75  53  46 CALM      29.99S
ONTARIO        SUNNY     77  59  53 SW3       30.00R
RIVERSIDE      SUNNY     76  58  53 SW3       30.00R
PALM SPRINGS   SUNNY     91  40  16 MISG      29.94R
EL CENTRO NAS  SUNNY     90  62  39 N3        29.90S
IMPERIAL       SUNNY     89  61  38 CALM      29.90R
BLYTHE         SUNNY     89  56  32 E3        29.93S
NEEDLES        SUNNY     87  39  18 CALM      29.98R
$$

NVZ020-UTZ003-231800-
SOUTHERN NEVADA-UTAH

CITY           SKY/WX    TMP DP  RH WIND       PRES   REMARKS
LAS VEGAS      SUNNY     84  41  21 S3        30.02S
SALT LAKE CITY MOSUNNY   73  54  51 SE6       30.16S
$$

NMZ009-TXZ055-231800-
NEW MEXICO-WEST TEXAS

CITY           SKY/WX    TMP DP  RH WIND       PRES   REMARKS
ALBUQUERQUE    MOSUNNY   69  57  65 S9        30.30R
EL PASO        MOSUNNY   74  61  63 CALM      30.21S
$$


........................KEY........................
SKY/WX - SKY CONDITION/WEATHER
TMP    - TEMPERATURE IN FAHRENHEIT
DP     - DEW POINT IN FAHRENHEIT
RH     - RELATIVE HUMIDITY IN PERCENT
WIND   - DIRECTION AND SPEED IN MILES PER HOUR (MPH)
VRB    - VARIABLE WIND DIRECTION
PRES   - MEAN SEA LEVEL PRESSURE IN INCHES OF MERCURY
         F - FALLING PRESSURE   R - RISING PRESSURE
         S - STEADY PRESSURE
VSB    - VISIBILITY IN MILES
HX     - HEAT INDEX IN FAHRENHEIT
WCI    - WIND CHILL INDEX IN FAHRENHEIT
TC     - TEMPERATURE IN CELSIUS WHICH IS ALSO KNOWN AS
         TEMPERATURE IN CENTIGRADE
AFB    - AIR FORCE BASE
         LUKE AFB IS LUKE AIR FORCE BASE
         DAVIS-MONTHAN IS DAVIS-MONTHAN AIR FORCE BASE
NAS    - NAVAL AIR STATION
         EL CENTRO NAS IS EL CENTRO NAVAL AIR STATION
N/A    - NOT AVAILABLE



USA.gov is the U.S. government's official web portal to all federal, state and local government web resources and services.